Location: Lugrin
(46.4033°N, 6.6674°E)
Time: 09:49:46
(UTC+00:00)

N. Korean satellite - Pass Details

Date: 03 December 2020
Orbit: 453 x 502 km, 97.2° (Epoch: 16 January)

Event Time Altitude Azimuth Distance (km) Brightness Sun altitude
Rises 04:48:47 0° 17° (NNE) 2,570 10.3 -21.6°
Reaches altitude 10° 04:50:54 10° 23° (NNE) 1,691 9.4 -21.3°
Maximum altitude 04:54:27 50° 100° (E) 638 7.5 -20.7°
Drops below altitude 10° 04:58:01 10° 176° (S) 1,697 9.5 -20.1°
Sets 05:00:08 0° 182° (S) 2,580 10.4 -19.7°
